WetterOnline ( http://www.wetteronline.at )

Wetter aktuell Ulm

Aktuelles Wetter: Ulm-Mähringen (592m)

6-stündlich | Neueste Meldungen
Ortszeit Temperatur Wetter
So, 24.06. 2:00 10.2° C bewölkt
Sa, 23.06. 20:00 16.2° C wolkig
Sa, 23.06. 14:00 15.4° C leicht bewölkt
Sa, 23.06. 8:00 9.5° C leicht bewölkt
Sa, 23.06. 2:00 5.4° C wolkenlos
Fr, 22.06. 20:00 13.5° C leicht bewölkt
Fr, 22.06. 14:00 14.1° C bedeckt
Fr, 22.06. 8:00 9.2° C fast wolkenlos
Ortszeit Temperatur Wetter
So, 24.06. 5:30 9.5° C bewölkt
So, 24.06. 5:20 9.5° C bewölkt
So, 24.06. 5:10 9.8° C bedeckt
So, 24.06. 5:00 9.8° C bedeckt
So, 24.06. 4:50 9.8° C bedeckt
So, 24.06. 4:40 9.6° C bedeckt
So, 24.06. 4:30 10.0° C bedeckt
So, 24.06. 4:00 10.2° C bedeckt
So, 24.06. 3:30 10.1° C bedeckt
So, 24.06. 3:00 10.8° C bedeckt
So, 24.06. 2:30 10.1° C bewölkt
Ortszeit Relative Feuchte Sichtweite
So, 24.06. 2:00 85% 35 km
Sa, 23.06. 20:00 49% 55 km
Sa, 23.06. 14:00 55% 40 km
Sa, 23.06. 8:00 80% 50 km
Sa, 23.06. 2:00 90% 45 km
Fr, 22.06. 20:00 52% 70 km
Fr, 22.06. 14:00 53% 65 km
Fr, 22.06. 8:00 69% 50 km
Ortszeit Relative Feuchte Sichtweite
So, 24.06. 5:30 89% 30 km
So, 24.06. 5:20 89% -
So, 24.06. 5:10 87% -
So, 24.06. 5:00 88% 35 km
So, 24.06. 4:50 88% -
So, 24.06. 4:40 90% -
So, 24.06. 4:30 87% 35 km
So, 24.06. 4:00 88% 35 km
So, 24.06. 3:30 89% 35 km
So, 24.06. 3:00 80% 45 km
So, 24.06. 2:30 86% 26 km
Ortszeit Niederschlagsmenge Niederschlagsart
So, 24.06. 2:00 0.0 l/m2 in 6 Std. -
Sa, 23.06. 20:00 0.0 l/m2 in 12 Std. -
Sa, 23.06. 14:00 0.0 l/m2 in 6 Std. -
Sa, 23.06. 8:00 0.0 l/m2 in 12 Std. -
Sa, 23.06. 2:00 0.0 l/m2 in 6 Std. -
Fr, 22.06. 20:00 0.0 l/m2 in 12 Std. -
Fr, 22.06. 14:00 0.0 l/m2 in 6 Std. -
Fr, 22.06. 8:00 0.0 l/m2 in 12 Std. -
Ortszeit Niederschlagsmenge Niederschlagsart
So, 24.06. 5:30 0.0 l/m2 in 1 Std. -
So, 24.06. 5:20 keine Meldung -
So, 24.06. 5:10 keine Meldung -
So, 24.06. 5:00 0.0 l/m2 in 1 Std. -
So, 24.06. 4:50 keine Meldung -
So, 24.06. 4:40 keine Meldung -
So, 24.06. 4:30 0.0 l/m2 in 1 Std. -
So, 24.06. 4:00 0.0 l/m2 in 1 Std. -
So, 24.06. 3:30 0.0 l/m2 in 1 Std. -
So, 24.06. 3:00 0.0 l/m2 in 1 Std. -
So, 24.06. 2:30 0.0 l/m2 in 1 Std. -
Ortszeit Stärke Spitze Richtung
km/h Bft. km/h Grad Sektor
So, 24.06. 2:00 4 1 18 100° O
Sa, 23.06. 20:00 15 3 33 320° NW
Sa, 23.06. 14:00 18 3 36 320° NW
Sa, 23.06. 8:00 6 1 9 300° NW
Sa, 23.06. 2:00 6 1 19 220° SW
Fr, 22.06. 20:00 11 2 36 290° W
Fr, 22.06. 14:00 22 4 46 320° NW
Fr, 22.06. 8:00 11 2 22 310° NW
Ortszeit Stärke Spitze Richtung
km/h Bft. km/h Grad Sektor
So, 24.06. 5:30 4 1 4 280° W
So, 24.06. 5:20 4 1 - 280° W
So, 24.06. 5:10 4 1 - 310° NW
So, 24.06. 5:00 2 1 6 290° W
So, 24.06. 4:50 2 1 - 290° W
So, 24.06. 4:40 4 1 - 290° W
So, 24.06. 4:30 4 1 4 250° W
So, 24.06. 4:00 2 1 4 310° NW
So, 24.06. 3:30 0 0 4 - -
So, 24.06. 3:00 4 1 11 200° S
So, 24.06. 2:30 2 1 7 80° O
Ortszeit Untergrenze Bedeckung Gattung
total tief tief mittel hoch
So, 24.06. 2:00 1230 m 8/8 7/8 - - -
Sa, 23.06. 20:00 1380 m 7/8 7/8 - - -
Sa, 23.06. 14:00 1170 m 4/8 3/8 - - -
Sa, 23.06. 8:00 1500 m 7/8 1/8 - - -
Sa, 23.06. 2:00 - 0/8 0/8 - - -
Fr, 22.06. 20:00 1800 m 2/8 2/8 - - -
Fr, 22.06. 14:00 1290 m 8/8 8/8 - - -
Fr, 22.06. 8:00 1320 m 1/8 1/8 - - -
Ortszeit Bedeckungsgrad in Achtel und Wolkenuntergrenze
So, 24.06. 5:30 7(1200m) 7(1500m) 8(9000m)
So, 24.06. 5:20 7(1200m) 7(1500m) 8(9000m)
So, 24.06. 5:10 7(1230m) 7(1500m) 8(2100m)
So, 24.06. 5:00 8(1230m) 7(1500m) 8(2100m)
So, 24.06. 4:50 8(1230m)
So, 24.06. 4:40 8(1230m)
So, 24.06. 4:30 8(1260m) 8(9000m)
So, 24.06. 4:00 8(1290m)
So, 24.06. 3:30 8(1290m)
So, 24.06. 3:00 8(1260m)
So, 24.06. 2:30 6(1260m) 7(1470m) 8(9000m)
Ortszeit Luftdruck NN (hPa) Tendenz (hPa in 3 Std.)
So, 24.06. 2:00 1024 - 0,4
Sa, 23.06. 20:00 1022 - 0,5
Sa, 23.06. 14:00 1024 - 0,1
Sa, 23.06. 8:00 1026 + 0,3
Sa, 23.06. 2:00 1028 - 0,3
Fr, 22.06. 20:00 1025 + 0,3
Fr, 22.06. 14:00 1024 + 0,3
Fr, 22.06. 8:00 1025 + 0,2
Ortszeit Luftdruck NN (hPa) Tendenz (hPa in 3 Std.)
So, 24.06. 5:30 1023 - 1,1
So, 24.06. 5:20 1023 keine Meldung
So, 24.06. 5:10 1023 keine Meldung
So, 24.06. 5:00 1023 - 1,0
So, 24.06. 4:50 1023 keine Meldung
So, 24.06. 4:40 1023 keine Meldung
So, 24.06. 4:30 1023 - 1,2
So, 24.06. 4:00 1023 - 1,1
So, 24.06. 3:30 1023 - 0,9
So, 24.06. 3:00 1024 - 0,7
So, 24.06. 2:30 1024 - 0,5
Ortszeit Schneehöhe (cm)
So, 24.06. 2:00 -
Sa, 23.06. 20:00 -
Sa, 23.06. 14:00 -
Sa, 23.06. 8:00 -
Sa, 23.06. 2:00 -
Fr, 22.06. 20:00 -
Fr, 22.06. 14:00 -
Fr, 22.06. 8:00 -
Ortszeit Schneehöhe (cm)
So, 24.06. 5:30 -
So, 24.06. 5:20 -
So, 24.06. 5:10 -
So, 24.06. 5:00 -
So, 24.06. 4:50 -
So, 24.06. 4:40 -
So, 24.06. 4:30 -
So, 24.06. 4:00 -
So, 24.06. 3:30 -
So, 24.06. 3:00 -
So, 24.06. 2:30 -
Link zu dieser Seite / Seite empfehlen

Das Wetter in ...